This demonstration page uses our WeatherBlox Daily Observations layout. Learn more.

Left ArrowRight Arrow

38.80484, -77.04692

Hourly Observations for December 31, 2021

Temp ( °F °C ) Dew Point ( °F °C ) Humidity (%) Winds ( mph kmh ) Pressure ( in mb ) Visibility ( mi km ) Precip ( " mm )
12:52 am 00:52 Cloudy with Mist and Fog 52 11.1 50 10 93 93 Calm 29.93 1013 5 8 0.00 0.00
1:48 am 01:48 Cloudy with Mist and Fog 50 10 48 9 94 94 Calm 29.94 1014 4 6 0.00 0.00
1:52 am 01:52 Cloudy with Mist and Fog 50 10 48 8.9 93 93 Calm 29.94 1014 4 6 0.00 0.00
2:13 am 02:13 Cloudy with Drizzle 50 10 48 8.9 93 93 E 3 6 29.94 1014 3 4 0.00 0.00
2:48 am 02:48 Cloudy with Drizzle 52 11 48 9 88 88 Calm 29.95 1014 3 5 0.00 0.00
2:52 am 02:52 Cloudy with Drizzle 51 10.6 50 10 96 96 Calm 29.94 1014 3 5 0.00 0.00
3:52 am 03:52 Cloudy with Mist and Fog 51 10.6 49 9.4 92 92 Calm 29.93 1014 3 5 0.00 0.00
4:52 am 04:52 Cloudy with Mist and Fog 52 11.1 50 10 93 93 S 5 7 29.93 1014 4 6 0.00 0.00
5:52 am 05:52 Cloudy with Fog 51 10.6 49 9.4 92 92 S 6 9 29.95 1014 4 6 0.00 0.00
6:52 am 06:52 Cloudy with Mist and Fog 51 10.6 49 9.4 92 92 S 6 9 29.95 1014 6 10 0.00 0.00
7:52 am 07:52 Cloudy with Mist and Fog 52 11.1 49 9.4 89 89 S 7 11 29.96 1015 6 10 0.00 0.00
8:52 am 08:52 Cloudy 52 11.1 49 9.4 89 89 S 7 11 29.97 1015 10 16 0.00 0.00
9:47 am 09:47 Cloudy 54 12 48 9 82 82 SSW 9 15 30.00 1016 8 13 0.00 0.00
9:52 am 09:52 Cloudy 53 11.7 49 9.4 86 86 SW 9 15 30.00 1016 8 13 0.00 0.00
10:08 am 10:08 Cloudy with Mist and Fog 53 11.7 50 10 89 89 S 5 7 30.01 1016 6 10 0.00 0.00
10:35 am 10:35 Cloudy with Mist and Fog 53 11.7 50 10 89 89 S 7 11 30.00 1016 4 6 0.00 0.00
10:52 am 10:52 Cloudy with Mist and Fog 52 11.1 50 10 93 93 S 8 13 29.99 1016 4 6 0.00 0.00
11:11 am 11:11 Cloudy with Mist and Fog 53 11.7 50 10 89 89 S 7 11 29.99 1016 6 10 0.00 0.00
11:40 am 11:40 Cloudy 53 11.7 50 10 89 89 SSE 9 15 29.96 1015 10 16 0.00 0.00
11:52 am 11:52 Cloudy 53 11.7 51 10.6 93 93 S 7 11 29.94 1014 10 16 0.00 0.00
12:52 pm 12:52 Mostly Cloudy 56 13.3 51 10.6 84 84 S 7 11 29.93 1014 10 16 0.00 0.00
1:33 pm 13:33 Mostly Cloudy 56 13.3 50 10 81 81 S 6 9 29.92 1013 10 16 0.00 0.00
1:52 pm 13:52 Mostly Cloudy 58 14.4 51 10.6 78 78 S 9 15 29.91 1013 10 16 0.00 0.00
2:52 pm 14:52 Mostly Cloudy 58 14.4 51 10.6 78 78 S 9 15 29.89 1012 10 16 0.00 0.00
2:55 pm 14:55 Mostly Cloudy 58 14.4 51 10.6 78 78 S 9 15 29.90 1013 10 16 0.00 0.00
3:52 pm 15:52 Mostly Cloudy 56 13.3 50 10 81 81 S 8 13 29.90 1013 10 16 0.00 0.00
4:52 pm 16:52 Cloudy 54 12.2 49 9.4 83 83 S 6 9 29.90 1013 10 16 0.00 0.00
5:52 pm 17:52 Cloudy 53 11.7 49 9.4 86 86 S 6 9 29.89 1012 10 16 0.00 0.00
6:52 pm 18:52 Mostly Cloudy 54 12.2 50 10 87 87 S 7 11 29.90 1012 10 16 0.00 0.00
7:52 pm 19:52 Cloudy with Light Rain 53 11.7 50 10 89 89 ENE 3 6 29.91 1013 10 16 0.00 0.00
8:52 pm 20:52 Cloudy with Light Rain 54 12.2 50 10 87 87 S 12 19 29.88 1012 10 16 0.03 0.76
9:52 pm 21:52 Cloudy 55 12.8 52 11.1 90 90 S 8 13 29.90 1012 10 16 0.00 0.00
10:52 pm 22:52 Cloudy 55 12.8 52 11.1 90 90 S 8 13 29.89 1012 10 16 0.00 0.00
11:52 pm 23:52 Cloudy 55 12.8 53 11.7 93 93 S 6 9 29.86 1011 10 16 0.00 0.00
11:58 pm 23:58 Cloudy 54 12.2 52 11.1 93 93 S 6 9 29.86 1011 10 16 0.00 0.00

Powered by AerisWeather